User: anonymous   Login
Location: Unspecified
(0.0000°N, 0.0000°E)
Time: 07:31:46
(UTC+00:00)
Language:

PAYLOAD C - Orbit

View from above orbital plane
View from above orbital plane
View from above satellite
View from above satellite

Ground track
Ground track

The orbit data is extracted from the following two-line orbital elements,

1 27842U 03031C   17148.75800470 +.00000034 +00000-0 +35019-4 0  9991
2 27842 098.6825 156.8573 0009704 024.8230 335.3412 14.22103664721704
Epoch (UTC): 28 May 2017 18:11:31
Eccentricity: 0.0009704
inclination: 98.6825°
perigee height: 811 km
apogee height: 825 km
right ascension of ascending node: 156.8573°
argument of perigee: 24.8230°
revolutions per day: 14.22103664
mean anomaly at epoch: 335.3412°
orbit number at epoch: 72170

The dashed part of the orbit path shows where the satellite is in the earth's shadow,  

DLR